Vertical_Velocity
-2 -2 -2 -2 -2 -2 -2 -2 -2 -2 -2 -2 -2 -2 -1 -1 -1 -2 -2 -2 -2 -2 -1 -1 -0 -0 0 0 0 0 0 0 0 0 1 2 2 1 0 -0 -0 -0 -0 -0 -0 -1 -3 -4 -4 -4 -3 -1 -2 -3 -1 2 3 1 -0 -1 1 1 0 -1 5 10 13 11 5
-2 -2 -2 -2 -2 -2 -2 -2 -2 -2 -2 -2 -2 -2 -2 -2 -1 -1 -1 -1 -2 -2 -2 -1 -0 -0 -0 0 0 0 0 0 0 0 1 1 2 2 2 1 0 0 -0 -0 0 -0 -1 -3 -4 -4 -4 -3 -2 -3 -3 -2 -1 -1 -2 -1 0 1 -0 -3 2 8 13 14 8
-2 -2 -2 -2 -2 -2 -3 -3 -2 -2 -2 -2 -2 -2 -3 -3 -2 -1 -1 -1 -1 -2 -2 -1 -1 -0 -0 -0 0 0 0 -0 -0 0 0 1 2 2 2 2 1 1 1 0 0 1 0 -1 -2 -3 -2 -1 -1 -1 -3 -3 -2 -2 -2 -1 -0 -1 -3 -4 1 6 10 12 9
-3 -2 -2 -2 -2 -2 -2 -3 -2 -2 -1 -2 -2 -2 -3 -3 -2 -2 -1 -0 -1 -1 -1 -1 -1 -0 0 0 0 0 -0 -0 -0 -0 0 1 1 2 2 2 2 2 1 1 1 2 2 0 -1 -1 -0 1 2 -0 -3 -5 -4 -3 -2 -0 -1 -3 -4 -3 1 4 7 10 9
-3 -2 -2 -2 -2 -2 -2 -2 -2 -2 -2 -1 -1 -2 -3 -3 -3 -2 -1 -1 -0 -1 -1 -1 -1 -1 -0 -0 -0 -0 0 -0 -0 -0 -0 0 1 2 2 3 2 2 2 2 2 2 2 2 0 0 2 3 3 1 -2 -5 -5 -4 -1 1 -2 -4 -4 -0 1 2 4 8 10
-3 -3 -3 -2 -2 -2 -2 -2 -2 -2 -1 -1 -1 -1 -2 -3 -3 -2 -2 -1 -1 -0 -1 -1 -1 -1 -1 -0 -0 -0 -0 0 -0 -0 -0 -0 1 1 2 2 2 2 2 2 2 3 3 2 1 1 3 4 5 4 1 -4 -5 -3 -1 1 -1 -1 -0 1 1 2 2 4 7
-2 -2 -3 -3 -3 -3 -2 -2 -2 -2 -1 -1 -1 -1 -2 -2 -2 -2 -2 -2 -1 -1 -0 -1 -1 -1 -1 -1 -1 -1 -0 -0 0 0 -0 -0 0 1 2 2 3 2 2 1 2 3 3 1 1 2 3 5 6 5 2 -2 -3 -2 -2 -1 -1 1 3 4 3 2 1 -1 2
-1 -1 -2 -2 -3 -3 -3 -2 -2 -2 -1 -1 -1 -1 -1 -2 -2 -2 -2 -2 -1 -1 -1 -1 -1 -1 -1 -1 -1 -1 -1 -1 -0 0 0 0 0 1 1 2 2 2 2 2 2 2 2 1 1 2 3 4 5 5 3 -1 -1 -1 -2 -3 -1 0 2 2 1 0 -1 -2 -1
-1 -1 -1 -2 -2 -3 -3 -2 -2 -1 -1 -1 -1 -1 -1 -1 -2 -2 -2 -2 -2 -1 -1 -1 -1 -1 -1 -1 -1 -1 -1 -1 -1 -0 0 0 0 0 1 1 1 2 2 1 1 2 2 1 0 1 2 3 3 3 2 0 -0 -0 -1 -3 -2 -1 -1 -0 -1 -1 -2 -1 -2
-2 -2 -1 -2 -2 -2 -3 -3 -2 -1 -1 -1 -1 -1 -1 -2 -2 -2 -2 -2 -2 -1 -1 -1 -1 -1 -1 -1 -1 -1 -1 -1 -1 -1 -0 -0 0 0 0 0 1 1 1 1 1 1 1 1 0 1 2 2 2 2 2 2 1 1 1 -3 -3 -3 -2 -2 -2 -1 -0 1 -1
-2 -2 -2 -2 -2 -2 -2 -3 -2 -1 -1 -1 -1 -1 -1 -1 -2 -2 -3 -3 -2 -1 -1 -1 -1 -1 -1 -1 -1 -1 -1 -1 -1 -1 -1 -1 -0 -0 -0 0 1 1 1 1 1 1 0 1 0 0 1 1 1 2 2 3 2 3 3 -1 -3 -3 -2 -2 -2 -1 1 2 -0
-2 -2 -2 -2 -2 -2 -2 -2 -2 -2 -1 -1 -1 -1 -1 -1 -1 -2 -2 -3 -2 -2 -2 -1 -1 -1 -1 -1 -1 -1 -1 -1 -1 -1 -1 -1 -1 -1 -0 -0 0 1 1 1 0 -0 -0 0 0 0 0 1 1 1 2 3 3 4 4 1 -2 -3 -2 -2 -2 -1 0 2 0
-2 -2 -2 -2 -2 -2 -2 -2 -2 -2 -1 -1 -1 -1 -1 -1 -1 -1 -2 -3 -3 -2 -2 -1 -1 -1 -1 -1 -1 -1 -1 -0 -0 -0 -1 -1 -1 -1 -1 -0 -0 0 1 1 0 -0 -0 -0 1 1 0 0 0 0 1 3 4 4 4 2 -1 -1 -1 -1 -2 -2 -2 0 -0
-1 -2 -2 -2 -2 -2 -2 -2 -2 -2 -1 -1 -1 -1 -1 -1 -1 -1 -2 -2 -2 -2 -2 -1 -1 -1 -1 -1 -1 -1 -0 -0 0 0 -0 -1 -1 -2 -2 -1 -0 -0 -0 0 0 0 0 0 1 1 1 0 0 1 2 3 4 4 2 1 -1 -0 0 -0 -2 -3 -3 -2 -2
-1 -1 -2 -2 -2 -2 -2 -2 -2 -2 -1 -1 -1 -1 -1 -1 -1 -1 -1 -2 -2 -2 -1 -1 -1 -1 -1 -1 -1 -1 -0 -0 0 1 0 -0 -1 -1 -2 -2 -1 -1 -0 -0 -0 0 1 1 1 1 1 1 1 2 2 3 3 3 2 0 -0 0 1 -0 -2 -3 -3 -1 -2
-1 -1 -1 -1 -1 -2 -2 -2 -2 -2 -1 -1 -1 -1 -1 -1 -1 -1 -1 -1 -2 -1 -1 -1 -1 -1 -1 -1 -1 -1 -1 -1 -0 0 1 0 0 -0 -1 -1 -1 -1 -1 -1 -0 -0 1 1 2 2 2 2 2 3 3 3 2 2 1 1 1 1 1 -0 -2 -2 -0 1 0
-1 -1 -1 -1 -1 -1 -1 -2 -2 -2 -1 -1 -1 -1 -1 -2 -1 -1 -1 -1 -1 -1 -1 -1 -1 -1 -1 -1 -1 -1 -1 -1 -1 -0 0 0 0 0 -0 -0 -1 -1 -1 -1 -1 -0 0 1 2 2 3 3 4 4 4 3 2 1 1 1 2 3 2 0 -1 -0 1 2 2
-0 -1 -1 -1 -1 -1 -1 -1 -2 -2 -1 -1 -1 -1 -2 -2 -2 -2 -2 -1 -1 -1 -2 -1 -1 -1 -1 -1 -1 -1 -1 -2 -1 -1 -0 -0 0 0 1 0 -0 -0 -1 -1 -1 -0 0 1 2 2 3 4 4 5 4 3 2 -0 -1 0 2 3 2 1 0 0 1 3 3
-0 -1 -1 -1 -1 -1 -1 -1 -1 -1 -1 -1 -1 -1 -2 -2 -2 -2 -2 -2 -2 -2 -2 -1 -1 -1 -2 -2 -2 -1 -1 -2 -2 -2 -1 -0 -0 -0 1 1 0 0 -0 -0 -0 -0 0 0 1 1 2 3 4 4 4 3 1 -1 -1 -1 1 2 2 1 0 1 2 4 4
-0 -1 -1 -1 -1 -1 -1 -1 -1 -1 -1 -1 -1 -1 -2 -2 -2 -2 -2 -2 -2 -2 -2 -2 -2 -2 -2 -2 -2 -2 -2 -2 -2 -2 -2 -1 -1 -0 -0 1 1 1 1 0 0 0 0 -0 0 0 1 2 3 3 3 2 0 -1 -2 -1 0 1 1 -0 -0 2 5 6 4
-0 -1 -1 -1 -1 -1 -1 -1 -1 -1 -1 -1 -1 -1 -1 -2 -2 -2 -2 -2 -2 -2 -2 -2 -2 -2 -2 -2 -2 -2 -2 -1 -2 -3 -2 -1 -1 -1 -0 0 1 1 1 1 1 1 1 0 -0 -0 0 1 2 2 2 1 -1 -2 -2 -1 0 0 -0 -1 0 6 11 12 6
0 -0 -1 -1 -1 -0 -1 -1 -0 -1 -1 -1 -1 -1 -1 -1 -1 -2 -2 -2 -2 -2 -2 -2 -2 -2 -2 -2 -2 -1 -1 -1 -2 -3 -3 -2 -2 -1 -1 0 1 1 1 2 2 2 1 1 0 0 0 1 1 1 1 0 -2 -3 -3 -1 -0 -0 -1 -2 0 9 17 19 9
0 -0 -1 -1 -1 -0 -0 -0 -0 -1 -1 -1 -1 -1 -1 -1 -1 -1 -1 -2 -2 -2 -2 -2 -2 -2 -2 -2 -1 -1 -1 -1 -1 -2 -3 -3 -2 -2 -1 -0 1 1 1 2 2 2 2 2 1 1 1 1 1 2 1 1 -1 -3 -3 -2 -1 -2 -2 -4 -3 5 14 14 6
1 -0 -1 -1 -1 -1 -0 -0 -0 -0 -1 -1 -1 -1 -1 -1 -1 -1 -1 -1 -1 -1 -2 -2 -2 -2 -1 -1 -0 -0 -1 -1 -2 -2 -3 -2 -2 -2 -1 -0 0 1 1 1 2 2 2 2 2 2 2 2 2 2 2 1 -0 -2 -3 -2 -3 -3 -4 -5 -5 -0 4 4 1
1 0 -0 -1 -1 -1 -1 -0 -0 -0 -1 -1 -1 -1 -1 -0 -1 -1 -1 -1 -1 -1 -1 -2 -2 -1 -1 -0 -0 -0 -1 -1 -2 -2 -3 -2 -1 -1 -1 -1 -0 0 1 1 2 2 2 2 2 2 2 2 2 2 2 2 1 -0 0 2 -0 -2 -4 -4 -3 -1 0 -0 -0
1 0 -0 -1 -1 -1 -1 -0 -0 -1 -1 -1 -1 -1 -1 -0 -0 -0 -0 -0 -1 -1 -1 -1 -1 -1 -0 -0 -0 -0 -0 -1 -2 -2 -3 -2 -1 -1 -1 -1 -0 0 1 1 1 1 1 2 2 2 2 2 2 2 2 2 2 3 5 7 1 -2 -4 -2 -0 1 1 1 1
1 -0 -1 -1 -1 -1 -0 -0 -0 -1 -1 -1 -1 -1 -0 -0 -0 -0 -0 0 -0 -1 -1 -1 -1 -1 -0 -0 -0 -0 -0 -1 -1 -2 -3 -2 -1 -1 -1 -1 -0 0 1 1 1 1 1 1 2 2 2 2 2 1 1 2 4 4 5 3 -1 -3 -3 -1 1 1 1 1 1
0 -0 -1 -1 -1 -0 -0 0 -0 -1 -1 -2 -1 -1 -0 0 0 0 0 0 0 -0 -0 -1 -1 -1 -1 -0 -0 -0 -0 -1 -1 -2 -3 -2 -1 -1 -1 -1 -0 0 1 1 1 1 1 1 2 2 2 2 1 1 0 0 -0 -0 -1 -2 -3 -3 -2 -0 0 1 1 0 0
-0 -1 -1 -1 -1 -0 0 1 0 -0 -1 -1 -1 -1 -0 0 1 1 1 1 0 -0 -1 -1 -1 -1 -1 -0 -0 -0 -0 -0 -1 -2 -3 -2 -1 -0 -0 -0 0 1 1 1 1 1 1 2 2 2 2 2 1 -0 -1 -2 -2 -3 -3 -3 -2 -2 -1 -1 -0 1 2 2 1
-0 -1 -1 -2 -1 0 1 1 1 -0 -1 -1 -1 -1 -0 1 1 1 1 1 0 -0 -1 -1 -1 -1 -1 -1 -1 -0 -1 -1 -1 -2 -3 -2 -1 -0 0 0 1 1 1 1 1 1 2 2 3 3 3 2 2 1 1 0 0 -0 -1 -1 -1 -1 -1 -0 1 2 3 3 2
-0 -1 -2 -2 -1 0 2 2 1 0 -1 -1 -1 -1 -0 1 1 1 1 0 -0 -0 -1 -1 -1 -1 -0 -0 -1 -1 -1 -1 -1 -2 -2 -2 -1 -0 0 1 1 2 2 2 2 2 2 3 3 3 2 2 2 2 2 2 2 2 1 1 0 0 1 2 4 5 5 4 2
-1 -1 -1 -1 -0 1 2 2 1 1 -0 -1 -1 -1 -0 1 1 1 0 -0 -0 -0 -0 -0 -0 -0 -0 -0 -1 -1 -1 -1 -1 -2 -2 -2 -1 -0 1 1 2 2 2 2 2 3 3 3 3 2 2 2 3 3 3 3 3 3 3 2 2 2 3 4 8 13 15 13 8
-1 -1 -1 -1 0 1 2 3 2 1 -0 -1 -1 -1 -0 1 1 1 0 0 0 -0 -0 -0 0 0 0 -0 -1 -1 -1 -1 -1 -1 -2 -2 -1 0 1 1 2 2 2 2 3 3 3 3 2 1 1 4 5 4 3 4 4 4 3 3 3 4 5 8 16 21 23 18 12
-1 -1 -1 -0 1 2 2 3 2 1 -0 -1 -1 -1 -0 1 1 1 1 1 0 -0 -0 -0 1 1 1 -0 -1 -1 -1 -1 -1 -1 -1 -1 -0 0 1 1 1 2 2 2 2 3 3 3 2 3 4 4 2 2 2 2 3 3 4 4 5 5 6 8 14 17 16 13 8
-1 -1 -1 -0 1 2 2 3 2 1 0 -1 -1 -1 0 1 2 2 1 0 0 -0 -0 1 2 2 1 -0 -1 -1 -0 -0 -0 -0 -0 -0 -0 0 1 1 1 2 2 2 2 3 5 8 12 12 9 2 -0 -1 0 0 1 1 3 4 6 6 6 4 4 5 6 4 1
-1 -1 -1 -0 1 2 2 2 2 1 0 -0 -1 -0 0 2 2 2 1 0 -0 -0 -0 1 3 3 2 0 -1 -1 -0 0 0 0 0 0 1 1 1 1 2 2 3 4 4 7 12 17 22 20 13 1 1 4 6 7 4 2 2 4 6 6 5 2 1 -0 -0 -1 -2
-1 -1 -1 -0 1 2 2 2 2 1 1 0 -0 0 1 2 2 2 1 0 -0 -1 -0 1 3 4 3 1 -0 -1 -0 0 1 1 1 1 1 2 2 3 2 2 3 4 6 12 18 20 23 21 15 7 8 11 14 16 14 12 11 11 9 7 4 2 2 1 1 0 -0
-1 -1 -1 -1 1 1 2 2 2 2 1 1 0 0 1 3 3 2 1 1 -0 -1 -0 2 4 4 3 2 0 -0 -0 0 1 2 2 2 2 3 4 4 3 2 2 2 7 13 16 14 17 16 13 6 7 9 11 13 14 16 17 15 10 7 4 3 3 3 3 2 0
-0 -1 -1 -1 -0 1 2 2 2 1 1 1 0 1 2 3 3 3 2 1 -0 -0 -0 2 4 5 4 2 1 0 -0 0 1 2 3 3 4 3 3 4 4 3 2 2 6 10 11 9 9 7 4 -2 -0 3 6 7 8 10 10 9 6 4 2 2 2 1 0 -1 -1
0 -0 -0 -1 -0 0 1 1 1 1 1 1 1 1 2 4 4 3 2 1 0 -0 -0 2 4 5 5 4 2 1 0 0 1 2 3 3 3 2 2 3 4 5 5 5 7 8 7 4 2 -0 -3 -6 -6 -2 2 4 3 3 3 2 3 2 1 -0 -1 -1 -1 -2 -2
1 0 -0 -1 -1 -0 -0 0 1 1 1 1 1 1 2 4 4 3 2 1 0 -0 -0 1 4 5 5 4 2 1 0 0 1 2 2 2 1 1 1 2 4 5 7 9 11 10 7 3 2 -0 -2 -5 -6 -5 -3 -1 -1 -2 -2 -2 -1 -1 -1 -0 1 0 -1 -2 -2
Height
3005 3004 3002 3001 3000 2999 2998 2997 2996 2995 2993 2992 2992 2991 2990 2989 2988 2987 2987 2986 2985 2984 2983 2982 2982 2981 2981 2980 2980 2980 2980 2980 2980 2980 2980 2981 2981 2982 2982 2983 2984 2984 2985 2986 2986 2987 2988 2989 2990 2991 2992 2992 2993 2993 2993 2993 2993 2994 2996 2997 2997 2998 2998 2998 2998 2998 2999 2999 3000
3003 3002 3000 2999 2998 2997 2996 2995 2994 2993 2992 2991 2990 2989 2988 2987 2986 2986 2985 2984 2983 2982 2982 2981 2980 2979 2979 2978 2978 2978 2977 2977 2977 2977 2978 2978 2978 2979 2980 2980 2981 2982 2982 2983 2984 2985 2985 2986 2987 2988 2989 2990 2990 2991 2991 2991 2992 2993 2994 2995 2995 2995 2995 2996 2996 2996 2996 2997 2998
3001 3000 2998 2997 2996 2995 2994 2993 2992 2991 2990 2989 2988 2987 2986 2985 2984 2983 2983 2982 2981 2981 2980 2979 2978 2977 2977 2976 2976 2975 2975 2975 2975 2975 2975 2975 2976 2976 2977 2977 2978 2979 2979 2980 2981 2982 2983 2983 2984 2985 2987 2987 2988 2988 2988 2989 2990 2991 2992 2992 2992 2992 2993 2994 2994 2994 2994 2994 2996
2999 2997 2996 2995 2994 2993 2992 2991 2990 2989 2988 2987 2986 2985 2984 2983 2982 2982 2981 2980 2979 2979 2978 2977 2976 2975 2975 2974 2973 2973 2973 2973 2973 2973 2973 2973 2973 2973 2974 2975 2976 2976 2977 2977 2978 2979 2980 2981 2982 2982 2984 2985 2985 2986 2986 2987 2988 2989 2990 2990 2990 2991 2991 2991 2992 2992 2992 2992 2993
2997 2996 2994 2993 2992 2991 2990 2989 2987 2987 2986 2985 2984 2982 2982 2981 2980 2979 2978 2978 2977 2977 2976 2975 2974 2973 2972 2972 2971 2971 2971 2970 2970 2970 2971 2971 2971 2971 2971 2972 2973 2974 2974 2975 2976 2977 2977 2978 2979 2980 2981 2982 2983 2983 2984 2985 2986 2987 2987 2987 2988 2988 2988 2989 2989 2990 2990 2990 2991
2995 2993 2992 2991 2989 2988 2987 2986 2985 2984 2983 2982 2982 2980 2979 2978 2977 2977 2976 2976 2975 2974 2973 2972 2972 2971 2970 2970 2969 2969 2968 2968 2968 2968 2968 2968 2968 2968 2969 2969 2970 2971 2972 2972 2973 2974 2974 2975 2976 2977 2978 2979 2981 2981 2982 2982 2984 2984 2985 2985 2986 2986 2986 2986 2987 2988 2989 2989 2989
2993 2991 2989 2988 2987 2986 2985 2984 2983 2982 2981 2980 2979 2978 2977 2976 2975 2974 2974 2973 2972 2972 2971 2971 2970 2969 2968 2967 2967 2966 2966 2966 2966 2965 2966 2966 2966 2966 2966 2967 2967 2968 2969 2970 2970 2971 2972 2972 2973 2974 2975 2977 2978 2979 2979 2980 2981 2982 2982 2983 2983 2984 2984 2984 2985 2986 2987 2987 2988
2991 2989 2987 2986 2985 2983 2982 2982 2981 2980 2979 2978 2977 2976 2974 2973 2972 2972 2971 2971 2970 2970 2969 2968 2967 2967 2966 2965 2965 2964 2963 2963 2963 2963 2963 2963 2963 2963 2963 2964 2964 2965 2966 2967 2967 2968 2969 2969 2970 2971 2972 2974 2975 2976 2977 2977 2978 2979 2980 2980 2981 2982 2982 2982 2983 2984 2985 2985 2986
2988 2987 2985 2983 2982 2981 2980 2979 2978 2977 2976 2975 2974 2973 2972 2971 2970 2969 2969 2968 2967 2967 2967 2966 2965 2964 2964 2963 2962 2962 2961 2961 2961 2960 2961 2961 2961 2961 2961 2961 2962 2962 2963 2964 2964 2965 2966 2967 2967 2968 2970 2971 2972 2973 2974 2975 2975 2977 2977 2978 2978 2979 2980 2981 2981 2982 2982 2983 2984
2986 2984 2983 2981 2980 2979 2977 2977 2976 2975 2974 2973 2972 2971 2970 2969 2968 2967 2966 2966 2965 2965 2964 2963 2962 2962 2962 2961 2960 2959 2959 2958 2958 2958 2958 2958 2958 2958 2958 2958 2959 2959 2960 2961 2962 2962 2963 2964 2965 2966 2967 2968 2969 2971 2972 2972 2972 2974 2975 2975 2976 2977 2978 2978 2979 2980 2980 2981 2982
2984 2982 2980 2979 2977 2976 2975 2974 2973 2972 2971 2970 2969 2968 2967 2966 2965 2965 2964 2963 2962 2962 2962 2961 2960 2959 2959 2958 2958 2957 2957 2956 2956 2955 2955 2955 2955 2955 2956 2956 2956 2956 2957 2957 2958 2959 2960 2961 2962 2963 2964 2965 2966 2967 2969 2970 2970 2971 2972 2972 2973 2974 2975 2976 2977 2977 2978 2978 2979
2982 2980 2978 2976 2975 2974 2972 2972 2971 2970 2969 2968 2967 2966 2965 2964 2963 2962 2961 2961 2960 2959 2959 2958 2957 2957 2956 2956 2955 2955 2954 2954 2953 2953 2953 2953 2953 2953 2953 2953 2953 2954 2954 2955 2955 2956 2957 2958 2959 2960 2961 2962 2963 2965 2966 2967 2967 2968 2969 2970 2970 2971 2972 2973 2974 2975 2975 2976 2977
2980 2978 2976 2974 2972 2971 2970 2969 2968 2967 2966 2965 2964 2963 2962 2962 2961 2960 2959 2958 2957 2957 2957 2956 2955 2954 2954 2953 2953 2952 2952 2952 2951 2951 2950 2950 2950 2950 2950 2951 2951 2951 2951 2952 2952 2953 2954 2955 2957 2957 2959 2960 2961 2962 2963 2964 2965 2965 2966 2967 2968 2968 2969 2971 2972 2972 2972 2973 2974
2977 2975 2973 2972 2970 2969 2967 2967 2966 2964 2963 2962 2962 2961 2960 2959 2958 2957 2956 2956 2955 2954 2954 2953 2952 2952 2951 2950 2950 2950 2949 2949 2948 2948 2948 2947 2947 2947 2948 2948 2948 2948 2949 2949 2949 2950 2951 2952 2954 2955 2956 2957 2958 2959 2960 2961 2962 2963 2963 2965 2965 2966 2967 2968 2969 2970 2970 2971 2971
2975 2973 2971 2969 2968 2966 2965 2964 2963 2962 2961 2960 2959 2958 2957 2956 2956 2955 2954 2953 2952 2952 2951 2950 2950 2949 2948 2947 2947 2947 2947 2946 2946 2946 2945 2945 2945 2945 2945 2945 2946 2946 2946 2946 2947 2947 2948 2949 2951 2952 2953 2954 2955 2957 2957 2959 2960 2960 2961 2962 2963 2964 2965 2966 2967 2967 2968 2968 2969
2972 2970 2968 2967 2965 2964 2962 2962 2960 2959 2958 2957 2957 2955 2955 2954 2953 2952 2951 2950 2950 2949 2948 2947 2947 2946 2945 2945 2944 2944 2943 2943 2943 2943 2942 2942 2942 2942 2942 2942 2943 2943 2943 2944 2944 2945 2946 2947 2948 2949 2950 2952 2952 2954 2955 2956 2957 2958 2959 2960 2961 2962 2963 2964 2965 2966 2967 2967 2967
2969 2968 2966 2964 2963 2962 2960 2959 2958 2957 2956 2955 2954 2953 2952 2951 2950 2949 2948 2947 2947 2946 2945 2945 2944 2943 2942 2942 2941 2941 2940 2940 2940 2940 2939 2939 2939 2939 2939 2940 2940 2940 2941 2941 2942 2942 2943 2944 2945 2946 2947 2948 2950 2951 2952 2953 2954 2956 2957 2958 2959 2960 2961 2962 2963 2964 2965 2966 2967
2967 2965 2963 2962 2961 2959 2958 2957 2955 2954 2953 2952 2951 2950 2949 2948 2947 2947 2946 2945 2944 2943 2942 2942 2941 2940 2940 2939 2938 2938 2937 2937 2937 2937 2937 2936 2936 2936 2936 2937 2937 2937 2938 2938 2939 2940 2940 2941 2942 2943 2945 2946 2947 2948 2950 2951 2952 2953 2954 2956 2957 2958 2958 2960 2961 2962 2963 2965 2965
2964 2962 2961 2959 2958 2957 2955 2954 2953 2952 2950 2949 2948 2947 2947 2946 2945 2944 2943 2942 2941 2940 2939 2939 2938 2937 2937 2936 2935 2935 2934 2934 2933 2933 2933 2933 2933 2933 2933 2934 2934 2934 2935 2936 2936 2937 2938 2939 2940 2941 2942 2943 2945 2946 2947 2948 2950 2951 2952 2954 2955 2956 2957 2957 2959 2960 2962 2963 2963
2962 2960 2958 2957 2956 2954 2953 2952 2950 2949 2948 2947 2946 2945 2944 2943 2942 2941 2940 2939 2938 2937 2937 2936 2935 2935 2934 2933 2932 2932 2932 2931 2931 2930 2930 2930 2930 2930 2930 2931 2931 2932 2932 2933 2933 2934 2935 2936 2937 2938 2940 2941 2942 2943 2945 2946 2947 2949 2950 2952 2953 2954 2955 2956 2957 2958 2960 2961 2961
2959 2957 2956 2954 2953 2952 2950 2949 2948 2947 2945 2944 2943 2942 2941 2940 2939 2938 2937 2936 2935 2934 2934 2933 2932 2932 2931 2931 2930 2929 2929 2928 2928 2927 2927 2927 2927 2927 2927 2927 2928 2928 2929 2930 2931 2932 2932 2933 2935 2936 2937 2939 2940 2941 2943 2944 2945 2947 2948 2950 2951 2952 2953 2954 2955 2956 2958 2959 2959
2956 2954 2953 2952 2950 2949 2948 2947 2945 2944 2943 2942 2941 2939 2938 2937 2936 2935 2934 2933 2933 2932 2931 2930 2930 2929 2929 2928 2927 2927 2926 2926 2925 2925 2924 2924 2924 2924 2924 2924 2925 2926 2926 2927 2928 2929 2930 2931 2932 2933 2935 2936 2938 2939 2941 2942 2943 2944 2946 2948 2949 2950 2951 2952 2952 2954 2956 2957 2957
2953 2952 2950 2949 2948 2947 2945 2944 2943 2942 2940 2939 2938 2937 2936 2935 2934 2933 2932 2931 2930 2929 2928 2928 2927 2927 2926 2926 2925 2924 2923 2923 2922 2922 2922 2921 2921 2921 2921 2922 2922 2922 2923 2924 2925 2926 2927 2928 2930 2931 2932 2934 2936 2937 2939 2940 2941 2942 2944 2946 2947 2948 2949 2950 2951 2952 2953 2955 2954
2951 2949 2948 2946 2945 2944 2943 2942 2940 2939 2938 2937 2936 2934 2933 2932 2931 2930 2929 2928 2927 2926 2926 2925 2925 2924 2924 2923 2922 2922 2921 2921 2920 2919 2919 2918 2918 2918 2918 2918 2919 2919 2920 2921 2922 2923 2924 2926 2927 2928 2930 2932 2933 2935 2937 2938 2940 2941 2942 2943 2945 2946 2947 2948 2949 2950 2951 2952 2952
2948 2947 2945 2944 2942 2941 2940 2939 2938 2937 2936 2934 2933 2932 2931 2930 2929 2927 2927 2926 2925 2924 2923 2923 2922 2922 2921 2921 2920 2919 2919 2918 2917 2917 2916 2916 2916 2915 2915 2915 2916 2917 2917 2918 2919 2921 2922 2923 2925 2926 2928 2929 2931 2933 2935 2936 2938 2939 2941 2942 2944 2944 2945 2946 2947 2948 2949 2950 2951
2945 2944 2942 2941 2940 2939 2938 2937 2935 2934 2933 2932 2931 2930 2929 2927 2927 2925 2924 2923 2922 2922 2921 2921 2920 2920 2919 2918 2918 2917 2917 2916 2915 2915 2914 2913 2913 2912 2912 2913 2913 2914 2915 2916 2917 2918 2919 2921 2922 2924 2925 2927 2929 2931 2932 2934 2936 2937 2939 2941 2942 2943 2944 2945 2946 2947 2948 2949 2949
2942 2941 2939 2938 2937 2936 2935 2934 2933 2932 2931 2930 2928 2927 2927 2925 2924 2923 2922 2921 2920 2919 2919 2918 2918 2917 2917 2917 2916 2915 2914 2914 2913 2912 2912 2911 2910 2910 2910 2910 2911 2911 2912 2913 2914 2915 2917 2918 2920 2921 2923 2925 2926 2928 2930 2932 2934 2936 2937 2939 2940 2941 2942 2943 2944 2945 2946 2947 2948
2939 2938 2937 2936 2935 2934 2933 2932 2930 2929 2928 2927 2926 2925 2924 2923 2922 2921 2920 2919 2918 2917 2917 2917 2916 2916 2915 2914 2914 2913 2912 2912 2911 2910 2909 2908 2908 2908 2908 2908 2908 2909 2909 2910 2911 2912 2914 2916 2917 2919 2921 2922 2924 2926 2928 2930 2932 2933 2934 2936 2937 2939 2940 2942 2942 2944 2945 2945 2946
2936 2935 2934 2933 2932 2931 2930 2929 2928 2927 2926 2925 2924 2923 2922 2921 2920 2919 2918 2917 2916 2915 2915 2914 2914 2914 2913 2912 2912 2911 2910 2910 2909 2908 2907 2907 2906 2906 2906 2906 2906 2907 2907 2908 2909 2910 2912 2913 2915 2917 2918 2920 2922 2924 2925 2927 2929 2930 2932 2934 2936 2937 2939 2940 2941 2942 2943 2944 2945
2933 2932 2931 2930 2930 2929 2928 2927 2926 2924 2923 2922 2922 2921 2920 2919 2918 2917 2916 2915 2914 2913 2913 2912 2912 2912 2911 2911 2910 2909 2908 2907 2907 2906 2905 2904 2904 2904 2904 2904 2904 2905 2905 2906 2907 2908 2910 2911 2913 2915 2916 2918 2920 2922 2923 2925 2927 2929 2931 2932 2934 2936 2937 2938 2939 2941 2942 2942 2943
2931 2929 2928 2928 2927 2926 2926 2924 2923 2922 2921 2920 2919 2918 2917 2917 2916 2914 2913 2912 2912 2912 2911 2911 2911 2910 2909 2909 2908 2907 2907 2906 2905 2904 2903 2902 2902 2902 2902 2902 2902 2903 2903 2904 2905 2907 2908 2910 2912 2913 2915 2916 2918 2920 2922 2923 2925 2927 2929 2930 2932 2934 2935 2937 2938 2939 2940 2941 2942
2928 2927 2926 2925 2925 2924 2923 2922 2921 2920 2919 2918 2917 2916 2915 2914 2913 2912 2911 2911 2910 2909 2909 2909 2909 2908 2908 2907 2906 2905 2905 2904 2903 2902 2902 2901 2901 2900 2900 2900 2901 2901 2902 2903 2904 2906 2907 2909 2910 2912 2913 2915 2917 2919 2920 2922 2923 2925 2927 2928 2930 2932 2933 2935 2937 2938 2939 2940 2941
2925 2924 2923 2923 2922 2921 2921 2920 2918 2917 2916 2915 2915 2914 2913 2912 2911 2910 2909 2908 2908 2907 2907 2907 2907 2907 2906 2905 2904 2904 2903 2902 2901 2901 2900 2899 2899 2899 2899 2899 2899 2900 2901 2902 2903 2905 2906 2908 2909 2911 2913 2915 2917 2918 2919 2921 2922 2924 2925 2927 2928 2930 2932 2934 2936 2937 2937 2938 2938
2923 2922 2921 2920 2919 2919 2918 2917 2916 2915 2914 2913 2912 2912 2911 2910 2909 2908 2907 2907 2906 2906 2906 2905 2905 2905 2904 2903 2903 2902 2901 2901 2900 2899 2899 2898 2898 2898 2898 2898 2899 2899 2900 2901 2902 2904 2906 2907 2909 2911 2912 2914 2915 2917 2918 2919 2921 2922 2924 2926 2927 2929 2931 2932 2933 2934 2935 2936 2936
2920 2919 2918 2918 2917 2916 2915 2915 2913 2912 2912 2911 2910 2909 2909 2908 2907 2906 2905 2905 2904 2904 2904 2904 2903 2903 2902 2902 2901 2901 2900 2899 2898 2898 2897 2897 2897 2897 2897 2898 2898 2899 2900 2901 2902 2904 2905 2907 2908 2910 2912 2913 2914 2916 2917 2918 2920 2921 2923 2924 2926 2927 2929 2930 2931 2932 2933 2934 2935
2918 2917 2916 2915 2914 2914 2913 2912 2911 2910 2909 2908 2908 2907 2907 2906 2905 2904 2903 2903 2902 2902 2902 2902 2902 2902 2901 2900 2900 2899 2898 2898 2897 2897 2897 2897 2897 2897 2897 2897 2898 2899 2900 2900 2902 2903 2905 2907 2907 2909 2910 2912 2914 2916 2917 2918 2919 2921 2922 2923 2924 2926 2927 2928 2930 2931 2932 2934 2935
2916 2914 2913 2912 2912 2911 2910 2909 2909 2908 2907 2906 2906 2905 2904 2903 2902 2902 2901 2901 2901 2900 2900 2900 2900 2900 2900 2899 2898 2898 2897 2897 2896 2896 2896 2896 2896 2897 2897 2898 2898 2899 2899 2900 2902 2903 2905 2906 2907 2908 2909 2911 2913 2915 2916 2917 2919 2920 2922 2923 2924 2925 2926 2927 2929 2930 2932 2933 2934
2913 2912 2911 2910 2909 2908 2908 2907 2906 2905 2905 2904 2903 2903 2902 2901 2901 2900 2899 2899 2899 2898 2898 2899 2899 2898 2898 2898 2897 2897 2896 2896 2895 2895 2895 2896 2896 2897 2897 2898 2898 2899 2899 2900 2901 2902 2904 2905 2906 2907 2908 2910 2912 2913 2914 2915 2917 2919 2920 2921 2922 2923 2924 2926 2927 2928 2930 2931 2932
2911 2909 2908 2907 2907 2906 2905 2905 2904 2903 2902 2902 2901 2901 2900 2899 2899 2898 2897 2897 2897 2897 2897 2897 2897 2897 2897 2896 2896 2896 2895 2895 2894 2895 2895 2895 2896 2896 2897 2897 2897 2898 2899 2900 2901 2902 2902 2903 2904 2905 2907 2909 2911 2912 2912 2913 2915 2916 2918 2919 2920 2921 2922 2924 2925 2927 2928 2929 2931
2908 2907 2906 2905 2904 2903 2902 2902 2901 2901 2900 2899 2899 2898 2898 2897 2897 2896 2896 2895 2895 2895 2895 2895 2895 2895 2895 2895 2895 2894 2894 2893 2893 2894 2894 2895 2895 2895 2896 2896 2897 2897 2898 2899 2900 2901 2902 2903 2904 2906 2907 2909 2911 2912 2912 2913 2914 2916 2917 2918 2919 2921 2922 2923 2925 2926 2927 2928 2929
2906 2905 2903 2902 2902 2901 2900 2899 2899 2898 2897 2897 2897 2896 2896 2895 2895 2894 2894 2893 2893 2893 2893 2893 2894 2894 2894 2894 2893 2893 2893 2892 2892 2893 2893 2893 2894 2894 2894 2895 2896 2897 2897 2898 2900 2901 2902 2904 2905 2906 2907 2908 2910 2911 2912 2913 2915 2916 2917 2918 2920 2921 2922 2923 2924 2925 2926 2927 2928